Location: Arroyo de Valdeoliva
(40.1604°N, 4.9878°W)
Time: 17:27:42
(UTC+00:00)

NOSS 2-3 (C) - Pass Details

Date: 11 December 2025
Orbit: 458 x 1718 km, 63.3° (Epoch: 15 January)

Event Time Altitude Azimuth Distance (km) Brightness Sun altitude
Rises 18:18:05 0° 224° (SW) 2,556 7.8 -15.5°
Reaches altitude 10° 18:20:17 10° 229° (SW) 1,622 6.8 -15.9°
Maximum altitude 18:23:40 52° 307° (NW) 579 3.6 -16.5°
Enters shadow 18:25:40 22° 16° (NNE) 1,069 4.5 -16.9°
